Погода в Сарлах

Россия / Республика Татарстан     54°57′29″N   53°27′52″E
темп.,
°C
ветер,
м/с
пор.,
м/с
влажн.,
%
обл.,
%
осадки,
мм/ч
давл.,
гПа
погр.,
м
18 мая, ср
ср1800:00+5ю34925 0.0 100360
03:00+4ю33925 0.0 100247
06:00+8ююз35817 0.0 1002296
09:00+12юз456470 0.9 10011206
12:00+13зюз565798 2.4 10001674
15:00+13з57635 4.0 10011291
18:00+8зюз5889100 1.1 1002623
21:00+5зсз61096100 1.4 1004578
19 мая, чт
чт1900:00+5зсз71291100 0.0 1006793
03:00+5з4109199 0.0 1007348
06:00+7з5979100 0.0 1008472
09:00+10з686298 0.1 10081593
12:00+10з7971100 0.6 10081262
15:00+9з697668 1.3 10081114
18:00+8з69825 0.5 1009807
21:00+4з229163 0.5 101021
20 мая, пт
пт2000:00+5з3791100 0.1 1010224
03:00+4юз359631 0.9 1009116
06:00+6зсз358627 0.0 1010501
09:00+9сз346120 0.0 10091507
12:00+11зсз334797 0.1 10081911
15:00+10зсз335797 0.9 10071296
18:00+8сз4676100 1.0 1006303
21:00+5зсз3686100 1.3 1005121
21 мая, сб
сб2100:00+4сз499447 0.4 1004279
03:00+2сз599677 0.5 1005362
06:00+2зсз5791100 0.1 1004733
09:00+2зсз6997100 0.3 1004526
12:00+4зсз6988100 0.4 1005821
15:00+6зсз6875100 0.9 10051171
18:00+4з4791100 0.4 1005562
21:00+2зюз3695100 0.5 1005248
22 мая, вс
вс2200:00+1зюз249695 0.0 1004137
03:00+1ссз229478 0.0 100365
06:00+2ссв3481100 0.0 1002726
09:00+3св5674100 0.0 10011040
12:00+5ссв7870100 0.0 10001114
15:00+7ссв7967100 0.1 10001279
18:00+6ссв81371100 0.2 10001221
21:00+5с91582100 0.4 1000967